This is the latest recevied weather packets stored in our database for station/object KJ4EBE. If no packets are shown the sender has not sent any weather packets the latest 10 day(s).
| Time | Temp. | Humidity | Pressure | Rain* | Wind** | Luminosity | Snow |
|---|---|---|---|---|---|---|---|
| 1777389323 | 26.11° C | 87% | 1012.1 hPa | 0 mm | - | 222 W/m² | - |
| 1777389021 | 25.56° C | 87% | 1012.2 hPa | 0 mm | - | 190 W/m² | - |
| 1777388718 | 26.11° C | 88% | 1012.1 hPa | 0 mm | - | 158 W/m² | - |
| 1777388415 | 25.56° C | 89% | 1012.3 hPa | 0 mm | - | 254 W/m² | - |
| 1777388115 | 25.56° C | 89% | 1012.5 hPa | 0 mm | - | 183 W/m² | - |
| 1777387811 | 25.56° C | 89% | 1012.3 hPa | 0 mm | - | 170 W/m² | - |
| 1777387508 | 25° C | 90% | 1012.1 hPa | 0 mm | - | 133 W/m² | - |
| 1777387203 | 25° C | 90% | 1012.3 hPa | 0 mm | - | 58 W/m² | - |
| 1777386898 | 25° C | 90% | 1012.2 hPa | 0 mm | - | 59 W/m² | - |
| 1777386595 | 25° C | 90% | 1012.5 hPa | 0 mm | - | 59 W/m² | - |
| 1777386293 | 25° C | 90% | 1012.2 hPa | 0 mm | - | 67 W/m² | - |
| 1777385989 | 25° C | 90% | 1012.1 hPa | 0 mm | - | 60 W/m² | - |
| 1777385685 | 25° C | 91% | 1012.1 hPa | 0 mm | - | 54 W/m² | - |
| 1777385383 | 25° C | 90% | 1012.1 hPa | 0 mm | - | 31 W/m² | - |
| 1777385079 | 25° C | 90% | 1012.2 hPa | 0 mm | - | 39 W/m² | - |
| 1777384776 | 25° C | 90% | 1012.1 hPa | 0 mm | - | 36 W/m² | - |
| 1777384472 | 25° C | 90% | 1012 hPa | 0 mm | - | 53 W/m² | - |
| 1777384167 | 25° C | 90% | 1011.9 hPa | 0 mm | - | 80 W/m² | - |
| 1777383863 | 25° C | 90% | 1012 hPa | 0 mm | - | 103 W/m² | - |
| 1777383560 | 25° C | 91% | 1011.6 hPa | 0 mm | - | 86 W/m² | - |
| 1777383256 | 24.44° C | 91% | 1011.7 hPa | 0 mm | - | 82 W/m² | - |
| 1777382953 | 24.44° C | 91% | 1011.6 hPa | 0 mm | - | 81 W/m² | - |
| 1777382648 | 24.44° C | 91% | 1011.5 hPa | 0 mm | - | 61 W/m² | - |
| 1777382344 | 24.44° C | 92% | 1011.5 hPa | 0 mm | - | 70 W/m² | - |
| 1777382041 | 24.44° C | 92% | 1011.7 hPa | 0 mm | - | 57 W/m² | - |
* Rain latest hour (hover to see other rain measurements)
** Current wind speed in m/s (hover to see current wind gust speed)